This is the latest recevied weather packets stored in our database for station/object CA3EAP-13. If no packets are shown the sender has not sent any weather packets the latest 10 day(s).
| Time | Temp. | Humidity | Pressure | Rain* | Wind** | Luminosity | Snow |
|---|---|---|---|---|---|---|---|
| 1777887305 | 17.78° C | 39% | 1013.9 hPa | - | - | - | - |
| 1777886705 | 17.78° C | 39% | 1014.1 hPa | - | - | - | - |
| 1777886105 | 17.78° C | 38% | 1014.1 hPa | - | - | - | - |
| 1777885505 | 17.78° C | 38% | 1014 hPa | - | - | - | - |
| 1777884905 | 17.78° C | 39% | 1013.9 hPa | - | - | - | - |
| 1777884305 | 17.78° C | 39% | 1013.8 hPa | - | - | - | - |
| 1777883705 | 17.78° C | 38% | 1013.8 hPa | - | - | - | - |
| 1777883105 | 17.78° C | 39% | 1013.9 hPa | - | - | - | - |
| 1777882505 | 17.78° C | 39% | 1014 hPa | - | - | - | - |
| 1777881905 | 18.33° C | 37% | 1014.1 hPa | - | - | - | - |
| 1777881305 | 18.33° C | 39% | 1014.2 hPa | - | - | - | - |
| 1777880105 | 18.33° C | 37% | 1014.5 hPa | - | - | - | - |
| 1777879505 | 18.33° C | 38% | 1014.5 hPa | - | - | - | - |
| 1777878905 | 18.33° C | 39% | 1014.5 hPa | - | - | - | - |
| 1777878305 | 18.33° C | 38% | 1014.6 hPa | - | - | - | - |
| 1777877705 | 18.33° C | 37% | 1014.5 hPa | - | - | - | - |
| 1777877105 | 17.78° C | 41% | 1014.6 hPa | - | - | - | - |
| 1777876505 | 18.33° C | 39% | 1014.7 hPa | - | - | - | - |
| 1777875905 | 18.33° C | 39% | 1014.6 hPa | - | - | - | - |
| 1777875305 | 18.33° C | 39% | 1014.8 hPa | - | - | - | - |
| 1777874705 | 18.33° C | 39% | 1015 hPa | - | - | - | - |
| 1777874105 | 18.33° C | 39% | 1015.2 hPa | - | - | - | - |
| 1777873505 | 18.89° C | 39% | 1015.3 hPa | - | - | - | - |
| 1777872905 | 18.89° C | 38% | 1015.5 hPa | - | - | - | - |
| 1777872305 | 18.89° C | 39% | 1015.6 hPa | - | - | - | - |
* Rain since midnight (hover to see other rain measurements)
** Current wind speed in m/s (hover to see current wind gust speed)